Regional Weather Roundup
Issued by NWS

Home | Current Version | Previous Version | Graphics & Text | Print | Product List | Glossary Off
Versions: 1 2 3 4 5 6 7 8 9 10 11 12 13 14 15 16 17 18 19 20 21 22 23 24 25 26 27 28 29 30 31 32 33 34 35 36 37 38 39 40 41 42 43 44 45 46 47 48 49 50

000
ASUS43 KMKX 280635
RWRWI

WISCONSIN REGIONAL WEATHER ROUNDUP
NATIONAL WEATHER SERVICE MILWAUKEE/SULLIVAN WI
200 AM CDT THU MAY 28 2015

NOTE: "FAIR" INDICATES FEW OR NO CLOUDS BELOW 12,000 FEET WITH NO
SIGNIFICANT WEATHER AND/OR OBSTRUCTIONS TO VISIBILITY.

WIZ001-002-006>008-014>016-023>028-280800-
NORTHWEST WISCONSIN

CITY           SKY/WX    TMP DP  RH WIND       PRES   REMARKS
SUPERIOR ARPT  CLEAR     51  44  78 NE10G17   30.07S
ASHLAND        CLEAR     51  49  92 N8        30.07R
HAYWARD        PTCLDY    52  50  93 CALM      30.06S FOG
SIREN          CLEAR     55  53  92 CALM      30.04S
CUMBERLAND     CLEAR     55  55 100 CALM      30.06S FOG
RICE LAKE      CLEAR     58  54  86 CALM      30.07S
CHETEK         CLEAR     56  55  99 CALM      30.06S
LADYSMITH      CLEAR     56  55  97 CALM      30.08S
EAU CLAIRE     CLEAR     62  54  74 S5        30.05S
MENOMONIE      CLEAR     63  59  88 E5        30.06R
NEW RICHMOND   CLEAR     59  58  96 CALM      30.05S
OSCEOLA        CLEAR     56  56 100 CALM      30.06S
$$

WIZ003>005-009-010-017-018-280800-
NORTH CENTRAL WISCONSIN

CITY           SKY/WX    TMP DP  RH WIND       PRES   REMARKS
MANITOWISH WTR FOG       50  50 100 CALM      30.08R VSB 1/4
ARBOR VITAE    CLEAR     55  53  94 CALM      30.08R
WOODRUFF       CLEAR     55  53  94 CALM      30.08R
RHINELANDER    CLEAR     52  51  97 CALM      30.09R FOG
EAGLE RIVER    PTCLDY    50  50 100 CALM      30.09R FOG
LAND O LAKES   CLEAR     48  48  99 CALM      30.10R FOG
PHILLIPS       FOG       53  53 100 CALM      30.07R VSB 1/2
TOMAHAWK       PTCLDY    53  51  95 CALM      30.08S FOG
MEDFORD        CLEAR     56  54  92 S5        30.08S
MERRILL        PTCLDY    52  52 100 NE3       30.09R FOG
$$

WIZ029-030-035-036-043>047-280800-
CENTRAL WISCONSIN

CITY           SKY/WX    TMP DP  RH WIND       PRES   REMARKS
WAUSAU         LGT RAIN  58  57  97 CALM      30.07R
MOSINEE        MOCLDY    57  57 100 CALM      30.11R
MARSHFIELD     CLEAR     57  53  86 S5        30.09R
STEVENS POINT  FOG       53  53 100 CALM      30.10S VSB 1/4
WAUPACA        CLEAR     59  58  97 CALM      30.09R FOG
WAUTOMA        PTCLDY    58  58 100 CALM      30.10R
WISC RAPIDS    CLEAR     58  55  90 CALM      30.10R
CAMP DOUGLAS   CLEAR     58  58 100 SE3       30.09R
$$

WIZ011>013-019>022-031-037>040-048>050-280800-
NORTHEAST WISCONSIN

CITY           SKY/WX    TMP DP  RH WIND       PRES   REMARKS
ANTIGO         PTCLDY    53  53 100 CALM      30.10R
SHAWANO        CLEAR     58  56  94 CALM      30.08R
OCONTO           N/A     52  52 100 CALM      30.08R
STURGEON BAY   CLEAR     57  54  88 SW7       30.10R
GREEN BAY      PTCLDY    59  55  87 S3        30.08R
MANITOWOC      MOCLDY    54  51  90 CALM      30.10R
APPLETON       PTCLDY    55  55 100 S5        30.09R
CLINTONVILLE   CLEAR     55  54  94 CALM      30.08R FOG
OSHKOSH        MOCLDY    61  56  83 SW5       30.09R
$$

WIZ032>034-041-042-053>061-280800-
SOUTHWEST WISCONSIN

CITY           SKY/WX    TMP DP  RH WIND       PRES   REMARKS
LA CROSSE      CLEAR     65  60  84 SE6       30.07S
SPARTA         CLEAR     56  55  96 CALM      30.10S
VIROQUA        CLEAR     65  58  76 S7        30.11R
BOSCOBEL       FOG       57  56  96 CALM      30.11R VSB 3/4
PRAIRIE DU CHI CLEAR     60  57  90 SE3       30.11R
PLATTEVILLE    CLEAR     64  59  85 S5        30.13R
$$

WIZ056-057-062-063-064-067-068-280800-
SOUTH CENTRAL WISCONSIN

CITY           SKY/WX    TMP DP  RH WIND       PRES   REMARKS
REEDSBURG      CLEAR     62  58  86 CALM      30.10S
BARABOO/DELLS  CLEAR     61  56  85 NE3       30.12R
LONE ROCK      CLEAR     61  59  93 CALM      30.11S
MINERAL POINT  CLEAR     64  59  82 S6        30.13R
MADISON        CLEAR     66  58  75 S3        30.11S
MIDDLETON      CLEAR     67  58  71 SW7       30.12S
WATERTOWN      CLEAR    N/A N/A N/A CALM      30.11S
MONROE         CLEAR     63  57  82 S8        30.13S
JANESVILLE     CLEAR     61  57  88 CALM      30.13R
$$

WIZ051-052-058>065-066-070>072-280800-
SOUTHEAST WISCONSIN

CITY           SKY/WX    TMP DP  RH WIND       PRES   REMARKS
MILWAUKEE      CLEAR     60  54  80 CALM      30.12R
WAUKESHA       CLEAR     61  54  77 SW5       30.13S
MILWAUKEE/TIMM PTCLDY    59  52  77 SW3       30.12R
RACINE         CLEAR     57  53  86 S3        30.15R
BURLINGTON     CLEAR     55  55  97 S3        30.13S
KENOSHA        CLEAR     59  56  89 S6        30.13R
FOND DU LAC    MOCLDY    63  58  83 S3        30.10S
SHEBOYGAN      MOCLDY    63  58  83 W3        30.10R
WEST BEND      MOCLDY    63  55  77 SW5       30.10S
JUNEAU         PTCLDY    64  58  79 CALM      30.13R
$$

LSZ147-162-280800-
LAKE SUPERIOR

STATION/POSITION TIME  TEMP    WIND        PRES    WAVE
                       AIR SEA DIR/SP/G            HT/PER
                 (UTC) (F)     (DEG/KT/KT) (MB)    (FT/S)
W MID LAKE BUOY  0550   42 37   50/ 16/ 17   N/A     1/ 2
DEVILS ISLAND    0600   47      50/ 13/ 15   N/A
PORT WING        0540   46      CALM  /  4   N/A
$$

LMZ867-665-643>646-280800-
LAKE MICHIGAN

STATION/POSITION TIME  TEMP    WIND        PRES    WAVE
                       AIR SEA DIR/SP/G            HT/PER
                 (UTC) (F)     (DEG/KT/KT) (MB)    (FT/S)
CHAMBERS ISLAND  0500   61     190/  6/  8   N/A
N MID LAKE BUOY  0550   45 36  190/ 10/ 12   N/A     1/ 4
NORTHPORT PIER   0500   53     140/  5/  6   N/A
SISTER BAY       0518   61        CALM       N/A
ALGOMA LAKESHORE 0538          230/ 12/ 13   N/A
KEWAUNEE LAKESHO 0600   54     290/  2/  5   N/A
SHEBOYGAN LAKESH 0600   62     260/  5/  6   N/A
PORT WASHINGTON  0540   52     190/  7/  9   N/A
ATWATER BUOY     0600   53 49  160/  8/  8   N/A
MILWAUKEE LAKESH 0600   64     230/  8/  9   N/A
S MID LAKE BUOY  0550   44 38  190/  6/  6   N/A     0
KENOSHA   LAKESH 0600   61     210/  5/  7   N/A
$$

TC  - TEMPERATURE IN CELSIUS
VSB - VISIBILITY IN STATUTE MILES
WCI - WIND CHILL INDEX
HX  - HEAT INDEX




USA.gov is the U.S. government's official web portal to all federal, state and local government web resources and services.